Flag for Canada Weather past 2 weeks in Camrose, Alberta, Canada

Now
36 °F

Passing clouds.


Feels Like: 36 °F
Forecast: 46 / 77 °F
Wind: 2 mph from North

Location: Edmonton International

Current Time: Sep 17, 2014 at 8:06:06 AM

Latest Report: Sep 17, 2014 at 7:00 AM


Visibility: 10 mi

Pressure: 29.84 "Hg

Humidity: 93%

Dew point: 34 °F

Location of CamroseLocation

Historic Weather in Camrose — Graph

°F

Camrose temperature yesterday

Maximum temperature yesterday: 81 °F (at 5:00 PM)
Minimum temperature yesterday: 36 °F (at 7:00 AM)
Average temperature yesterday: 57 °F

Past Weeks' High & Low Weather Summary

 TemperatureHumidityPressure
High81 °F (Sep 16, 5:00 PM)100% (Sep 3, 1:00 AM)30.67 "Hg (Sep 3, 1:00 AM)
Low23 °F (Sep 11, 4:00 AM)27% (Sep 5, 4:00 PM)29.74 "Hg (Sep 2, 5:00 PM)
Average47 °F75%30.13 "Hg
* Reported Sep 2 7:00 AM — Sep 17 7:00 AM, Camrose, Weather by CustomWeather, © 2014

Note: Actual official high and low records may vary slightly from our data, if they occured in-between our weather recording intervals... More about our weather records

Advertising

Camrose weather history for previous 24 hours

 ConditionsComfort  
Time TempWeatherWind HumidityBarometerVisibility
7:00 AM
Sep 17
36 °FPassing clouds.2 mph93%29.84 "Hg10 mi
6:00 AM37 °FPassing clouds.2 mph93%29.84 "Hg15 mi
5:00 AM39 °FPassing clouds.3 mph87%29.83 "Hg15 mi
4:00 AM37 °FPassing clouds.2 mph93%29.84 "Hg15 mi
3:00 AM41 °FPassing clouds.6 mph87%29.85 "Hg15 mi
2:00 AM41 °FPassing clouds.7 mph93%29.86 "Hg15 mi
1:00 AM43 °FPassing clouds.2 mph93%29.86 "Hg12 mi
12:00 AM45 °FPassing clouds.7 mph87%29.86 "Hg12 mi
11:00 PM
Sep 16
46 °FPassing clouds.2 mph76%29.85 "Hg12 mi
10:00 PM48 °FPassing clouds.5 mph82%29.86 "Hg12 mi
9:00 PM55 °FPassing clouds.3 mph67%29.87 "Hg12 mi
8:00 PM63 °FPassing clouds.2 mph49%29.86 "Hg12 mi
7:00 PM73 °FPassing clouds.3 mph33%29.85 "Hg15 mi
6:00 PM77 °FPassing clouds.7 mph32%29.84 "Hg15 mi
5:00 PM81 °FPassing clouds.6 mph28%29.83 "Hg15 mi
4:00 PM79 °FPassing clouds.6 mph30%29.84 "Hg15 mi
3:00 PM79 °FPassing clouds.6 mph32%29.85 "Hg15 mi
2:00 PM77 °FPassing clouds.7 mph34%29.86 "Hg15 mi
1:00 PM75 °FPassing clouds.8 mph36%29.87 "Hg15 mi
12:00 PM70 °FPassing clouds.3 mph43%29.89 "Hg15 mi
11:00 AM66 °FPassing clouds.6 mph49%29.90 "Hg15 mi
10:00 AM61 °FPassing clouds.6 mph59%29.92 "Hg15 mi
9:00 AM52 °FPassing clouds.6 mph77%29.94 "Hg15 mi
8:00 AM39 °FPassing clouds.6 mph100%29.94 "Hg15 mi
Weather by CustomWeather, © 2014

See weather overviewHow to use our weather pages